Wind_Speed
5 5 5 4 3 1 0 2 2 2 1 1 2 3 5 7 10 12 13 15 17 17 18 20 22 24 25 26 28 29 29 30 31 33 36 38 39 39 41 43 43 44 44 44
5 5 4 3 2 2 2 2 3 2 2 2 2 4 6 9 11 13 14 16 17 18 19 21 23 23 24 25 27 28 29 30 32 34 35 37 37 38 39 41 42 43 43 43
6 5 4 3 3 3 4 4 5 4 3 3 4 6 8 9 11 14 15 16 17 18 20 21 22 23 24 25 27 28 30 31 33 34 35 36 37 37 38 39 40 41 41 40
5 4 4 3 2 2 3 4 5 5 4 4 6 8 9 11 12 14 16 17 18 19 20 20 21 23 24 24 26 27 29 31 32 33 35 35 36 37 38 39 39 38 37 37
5 4 3 2 1 1 2 3 5 6 6 6 7 8 10 12 14 15 16 17 18 19 20 20 21 22 24 25 26 27 29 30 31 32 34 34 35 36 36 37 38 38 36 35
6 5 3 2 1 1 2 3 5 6 7 7 8 10 12 14 15 16 17 18 18 19 20 21 21 22 24 26 26 28 29 30 31 31 32 33 34 35 35 36 37 37 37 36
7 6 5 3 2 2 3 4 5 6 8 9 10 12 14 15 17 18 18 19 20 21 22 22 23 24 25 26 27 28 29 30 31 31 32 32 33 33 34 34 35 34 35 35
9 7 6 5 4 4 4 5 6 8 9 11 12 14 15 16 18 18 19 21 22 23 24 24 25 26 27 27 28 29 29 29 30 31 31 32 33 32 33 32 31 31 31 32
10 9 8 7 6 6 6 7 8 9 10 12 13 15 16 18 19 20 21 22 24 25 25 26 27 27 28 28 28 29 29 29 30 30 31 32 32 32 32 31 30 31 31 31
12 11 10 10 9 8 8 9 10 11 12 13 15 16 18 20 21 22 23 25 26 27 27 27 28 29 29 29 29 30 30 30 30 30 31 31 31 31 30 30 30 30 30 31
14 13 12 12 11 10 10 11 12 13 14 15 17 18 19 21 22 24 25 27 28 29 29 29 30 31 31 30 30 31 31 31 30 30 30 30 30 30 30 30 30 30 29 29
15 15 15 14 14 13 13 14 14 15 16 18 19 20 21 22 23 25 26 28 29 30 30 31 31 32 31 31 31 31 31 31 30 30 30 29 29 29 29 29 29 28 28 28
18 18 17 17 17 16 16 16 17 18 19 20 22 23 24 24 25 26 28 29 30 31 31 32 32 32 32 32 32 32 32 31 30 30 30 29 29 29 29 29 28 27 27 27
21 20 20 20 20 20 19 20 20 20 22 23 24 24 25 26 27 28 29 31 32 32 32 33 33 32 32 33 33 33 32 31 31 30 29 29 29 29 29 29 28 27 27 27
23 23 22 22 22 22 22 23 23 23 24 25 26 26 27 28 29 30 31 32 33 33 33 34 34 33 33 34 33 33 33 32 32 31 30 30 29 29 29 28 28 27 26 26
24 24 24 24 24 24 24 24 25 25 26 27 28 29 29 30 30 31 32 33 34 34 35 35 34 34 34 34 33 33 33 32 32 32 31 30 30 29 28 27 26 25 24 24
27 26 26 26 26 26 27 27 27 27 28 29 29 31 31 31 32 33 34 35 35 35 36 36 35 35 35 34 34 33 33 33 32 32 31 30 29 29 28 27 25 24 23 23
28 28 28 28 28 28 28 29 29 29 30 31 32 32 33 33 34 34 35 36 36 36 37 37 37 36 36 35 34 34 33 33 32 32 31 30 29 29 28 26 25 24 23 23
30 29 29 29 30 30 30 31 31 31 32 33 33 34 34 35 35 36 37 37 37 37 38 38 37 37 36 36 35 34 34 33 33 32 31 30 29 28 27 26 25 25 25 25
32 32 31 31 32 32 32 33 33 33 34 34 35 35 35 36 36 37 38 38 38 38 38 38 38 37 37 36 35 35 34 34 34 33 32 31 30 29 28 27 26 25 25 26
34 34 34 34 34 34 34 34 35 35 35 36 36 36 36 37 37 38 39 39 39 39 39 38 38 38 37 37 36 35 35 34 34 33 32 31 30 29 28 27 27 27 27 27
34 34 35 35 36 36 36 36 36 36 37 37 37 37 37 37 38 39 40 40 40 39 39 39 38 38 37 37 37 36 36 35 34 34 33 32 31 30 29 28 28 28 27 28
36 36 36 36 36 36 37 37 37 37 38 38 38 38 38 38 39 40 41 41 40 40 39 39 39 38 38 38 38 37 37 36 35 35 34 33 31 30 30 29 29 28 28 28
36 36 37 36 37 37 37 37 38 38 38 39 39 39 39 40 40 41 42 41 41 40 40 39 39 39 39 39 38 38 37 37 36 35 34 33 32 31 30 30 29 29 29 29
36 37 37 37 37 38 38 38 39 39 39 39 39 39 40 41 41 42 41 41 41 40 40 39 40 40 40 40 39 38 38 37 36 35 33 32 31 31 30 30 30 29 29 28
36 37 38 38 38 38 39 39 40 39 40 40 40 40 41 41 42 41 41 41 41 40 40 40 40 41 41 41 40 39 39 37 36 34 33 31 30 30 30 30 30 29 28 28
37 38 38 39 39 39 39 40 40 40 40 40 40 41 41 41 42 42 41 41 40 40 40 40 41 41 41 41 40 39 38 36 34 33 32 31 30 29 29 29 28 28 28 27
Wind_Direction
159 164 164 157 158 153 30 351 10 22 21 337 318 315 318 314 311 310 306 300 297 297 295 295 294 290 286 282 281 281 279 279 280 279 279 278 278 277 275 273 273 274 272 271
151 151 150 143 122 82 41 19 20 13 5 347 325 320 323 319 317 318 316 311 308 304 302 300 298 295 289 285 285 285 284 282 282 282 282 280 278 278 276 275 275 274 272 271
150 143 139 129 94 57 49 35 21 16 8 3 358 344 337 333 329 327 325 319 315 311 307 303 300 298 295 291 288 287 287 287 286 285 284 282 280 278 276 275 276 275 272 272
167 160 147 129 93 47 33 28 20 17 3 348 352 349 344 339 335 330 328 328 323 319 314 307 303 302 301 297 293 292 291 290 288 286 285 284 283 280 278 277 276 275 274 272
188 180 172 163 99 21 16 10 4 359 350 340 340 340 337 337 335 333 331 330 327 325 323 317 311 307 304 302 299 296 294 292 290 289 287 285 285 283 280 278 277 275 274 273
211 209 212 225 248 306 335 341 344 346 343 337 330 331 332 333 333 332 331 331 329 325 325 323 319 313 308 307 303 300 297 294 293 292 290 289 288 286 283 281 278 275 273 272
224 226 229 238 246 281 314 323 327 331 332 330 326 324 325 327 328 329 329 328 326 323 322 321 318 316 313 311 306 302 299 295 294 293 292 291 290 289 288 285 281 277 274 271
231 231 231 240 251 274 295 306 314 319 322 323 322 321 322 323 322 323 325 325 323 320 319 318 317 316 314 312 309 305 302 299 297 296 295 294 293 292 291 287 282 278 275 272
234 236 241 248 259 273 285 296 304 311 316 319 320 320 320 321 321 321 321 322 321 320 318 317 316 317 316 313 311 308 305 302 301 299 298 297 296 294 292 288 284 279 275 272
236 241 247 252 258 270 283 292 299 305 311 315 317 319 320 320 319 318 319 319 317 317 316 316 316 317 316 313 311 310 308 306 303 301 300 299 299 297 294 291 287 282 275 270
240 245 249 252 258 268 280 288 296 301 307 311 314 315 318 321 320 318 317 316 315 315 314 313 313 315 315 314 312 310 307 306 305 303 303 301 300 299 296 294 290 282 276 271
242 247 251 253 258 266 277 286 294 300 304 308 311 313 314 315 317 317 317 317 316 315 313 312 312 313 312 313 312 311 308 306 305 304 303 303 302 301 299 297 293 286 278 273
246 248 252 255 259 265 272 281 289 296 301 306 309 310 311 311 312 314 315 316 316 315 314 313 312 312 312 311 311 311 309 308 307 306 305 304 302 301 299 297 294 288 280 275
250 252 255 258 261 265 270 277 285 293 298 302 306 308 310 310 310 312 314 315 315 315 314 314 312 311 311 311 310 310 309 309 308 306 305 304 304 302 300 299 295 290 282 277
251 254 257 259 262 266 270 276 282 289 294 298 302 305 307 308 309 311 313 314 315 315 314 314 312 310 309 309 309 309 309 308 307 305 303 303 303 302 301 299 296 291 284 278
251 254 258 260 263 267 271 275 280 286 291 295 299 303 305 307 307 310 312 314 314 314 314 313 312 310 309 308 308 309 309 308 308 306 304 301 301 301 301 299 296 291 285 278
253 257 260 262 265 268 272 276 280 284 289 293 298 301 304 305 307 309 311 312 313 313 313 312 311 310 309 308 307 307 307 307 307 306 305 302 300 301 301 299 296 292 287 282
255 257 260 263 266 269 273 276 280 284 288 292 296 299 301 303 305 307 308 310 311 312 312 312 311 309 308 307 305 305 305 306 305 305 304 302 300 300 299 298 296 291 287 283
257 258 261 264 267 270 273 277 280 284 288 291 294 297 299 301 303 305 307 309 309 310 311 311 310 309 308 307 305 304 303 304 304 303 302 301 300 299 298 296 294 291 287 283
257 260 262 265 268 271 273 276 280 284 287 290 293 295 297 299 301 303 306 308 308 308 309 309 309 309 308 307 306 304 303 303 303 302 300 299 299 298 296 294 293 292 290 286
259 261 263 266 268 271 274 277 280 282 285 289 292 293 295 298 300 302 304 305 307 307 307 308 308 308 307 306 306 305 303 303 301 300 298 298 298 297 295 293 292 291 290 289
259 262 265 267 269 272 274 277 279 282 284 287 290 292 294 296 299 301 302 304 304 305 306 307 307 307 307 306 305 305 304 302 300 299 297 296 295 295 293 292 291 290 289 289
260 262 265 268 270 273 275 277 279 282 284 286 288 291 293 294 297 300 301 302 302 303 304 305 306 307 307 306 305 304 303 301 300 298 296 294 293 293 292 291 290 289 289 288
261 263 265 268 271 273 276 278 280 281 283 285 287 289 292 294 296 299 300 301 301 302 302 303 305 306 306 306 306 305 302 300 299 298 296 293 291 291 291 291 290 288 288 288
261 263 265 268 271 273 275 277 279 281 283 285 286 288 290 293 296 298 299 300 301 301 302 302 304 305 306 306 305 304 302 300 298 296 295 293 291 290 289 289 290 289 288 288
261 263 266 268 270 272 274 275 277 279 282 284 286 288 290 293 295 297 298 299 300 300 301 302 303 304 305 305 304 303 301 299 297 294 293 293 292 291 289 289 289 288 288 287
264 265 266 269 270 271 272 274 276 279 281 284 286 288 290 292 294 296 297 298 299 300 301 302 304 304 305 304 304 302 300 298 296 293 291 292 292 291 290 289 288 287 286 286
Height
5643 5644 5645 5646 5646 5647 5647 5647 5648 5648 5647 5648 5648 5649 5649 5649 5649 5648 5647 5646 5644 5643 5642 5640 5639 5637 5635 5635 5635 5635 5635 5635 5635 5634 5633 5632 5631 5630 5630 5629 5629 5628 5628 5627
5643 5644 5645 5646 5646 5646 5647 5646 5646 5646 5647 5647 5647 5647 5647 5647 5646 5644 5643 5641 5639 5637 5636 5634 5632 5629 5628 5627 5626 5626 5626 5626 5625 5623 5622 5620 5620 5619 5618 5617 5617 5616 5615 5615
5644 5644 5645 5647 5647 5647 5646 5646 5646 5645 5647 5646 5646 5646 5646 5644 5643 5641 5639 5637 5635 5632 5630 5628 5625 5623 5621 5619 5618 5617 5617 5616 5614 5613 5611 5610 5609 5607 5607 5606 5605 5604 5603 5602
5644 5645 5646 5649 5647 5647 5646 5646 5646 5645 5645 5645 5645 5645 5644 5642 5640 5638 5636 5633 5630 5627 5624 5621 5619 5616 5614 5613 5611 5610 5608 5606 5605 5603 5601 5599 5598 5597 5595 5594 5593 5592 5591 5590
5643 5644 5645 5647 5646 5646 5646 5646 5646 5645 5644 5644 5644 5643 5641 5640 5638 5635 5632 5630 5626 5623 5619 5616 5613 5611 5609 5607 5605 5603 5601 5598 5595 5593 5591 5589 5587 5585 5584 5582 5581 5580 5579 5579
5642 5643 5644 5647 5646 5645 5646 5646 5645 5644 5643 5643 5642 5642 5640 5638 5635 5632 5629 5626 5623 5620 5616 5612 5609 5606 5604 5601 5598 5596 5593 5590 5587 5584 5582 5579 5577 5575 5573 5571 5569 5568 5568 5567
5640 5641 5643 5644 5644 5644 5646 5646 5644 5643 5642 5641 5640 5639 5637 5635 5632 5629 5626 5623 5620 5616 5612 5609 5605 5601 5598 5595 5592 5589 5585 5582 5579 5576 5573 5570 5568 5565 5563 5560 5559 5558 5557 5557
5638 5640 5643 5642 5642 5643 5644 5642 5641 5641 5640 5638 5637 5635 5633 5631 5628 5626 5623 5619 5616 5612 5608 5604 5600 5596 5593 5589 5585 5581 5578 5574 5571 5568 5564 5561 5559 5556 5553 5550 5548 5548 5547 5547
5637 5640 5639 5639 5640 5640 5640 5640 5639 5638 5637 5636 5634 5632 5630 5627 5625 5622 5618 5615 5611 5607 5603 5599 5595 5591 5586 5582 5578 5574 5570 5567 5563 5560 5556 5553 5550 5547 5544 5541 5539 5538 5537 5537
5633 5635 5635 5636 5636 5637 5637 5637 5636 5635 5634 5632 5630 5628 5626 5623 5620 5617 5614 5610 5606 5602 5598 5593 5589 5584 5580 5575 5571 5567 5563 5559 5555 5552 5548 5545 5542 5539 5536 5533 5530 5529 5528 5528
5630 5631 5631 5632 5632 5633 5633 5633 5632 5631 5630 5628 5626 5624 5622 5619 5616 5612 5608 5604 5600 5596 5592 5588 5583 5578 5573 5568 5564 5559 5555 5551 5547 5544 5540 5537 5534 5530 5527 5524 5521 5520 5519 5518
5626 5627 5627 5628 5629 5629 5629 5628 5628 5627 5625 5624 5622 5619 5617 5614 5610 5607 5603 5599 5594 5590 5585 5581 5576 5571 5566 5561 5556 5551 5547 5543 5539 5536 5532 5529 5526 5522 5518 5516 5513 5511 5510 5510
5620 5621 5622 5623 5623 5624 5623 5623 5622 5621 5620 5618 5616 5613 5611 5608 5604 5600 5596 5592 5587 5583 5578 5573 5568 5563 5558 5553 5548 5544 5539 5535 5531 5527 5524 5521 5518 5515 5512 5508 5505 5503 5501 5501
5614 5615 5616 5617 5618 5618 5618 5617 5617 5615 5614 5612 5609 5607 5604 5601 5597 5593 5589 5585 5580 5575 5571 5566 5561 5556 5551 5546 5541 5536 5532 5527 5524 5520 5517 5514 5510 5507 5504 5500 5498 5495 5494 5492
5607 5608 5610 5610 5611 5611 5611 5611 5610 5609 5607 5605 5602 5599 5597 5593 5590 5586 5582 5577 5573 5568 5563 5558 5553 5548 5543 5538 5533 5529 5524 5520 5516 5512 5509 5506 5502 5499 5496 5493 5490 5487 5486 5484
5600 5601 5602 5603 5604 5604 5604 5603 5603 5601 5599 5597 5595 5592 5589 5585 5582 5578 5574 5569 5565 5560 5555 5550 5545 5540 5535 5530 5525 5521 5517 5512 5508 5504 5501 5497 5494 5491 5488 5485 5482 5480 5478 5477
5592 5594 5595 5595 5596 5596 5596 5595 5594 5593 5591 5589 5587 5584 5581 5577 5574 5570 5566 5561 5556 5551 5546 5541 5536 5531 5526 5522 5517 5513 5509 5504 5500 5496 5493 5489 5486 5483 5480 5477 5474 5472 5471 5469
5584 5585 5586 5587 5588 5588 5587 5587 5586 5584 5583 5580 5578 5575 5572 5569 5565 5561 5557 5552 5547 5543 5538 5532 5527 5522 5517 5513 5508 5504 5500 5496 5492 5488 5485 5481 5478 5475 5472 5469 5467 5465 5463 5462
5575 5576 5577 5578 5578 5579 5578 5578 5577 5575 5573 5571 5569 5566 5563 5560 5556 5552 5548 5543 5539 5534 5528 5523 5518 5513 5508 5503 5499 5495 5491 5487 5483 5480 5476 5473 5470 5467 5464 5462 5459 5457 5456 5455
5566 5567 5568 5569 5569 5569 5569 5568 5567 5566 5564 5561 5559 5556 5553 5550 5546 5542 5538 5534 5529 5524 5519 5513 5508 5503 5498 5494 5490 5486 5482 5478 5474 5471 5467 5464 5461 5458 5456 5454 5451 5450 5448 5447
5556 5557 5558 5559 5559 5559 5559 5558 5557 5555 5553 5551 5549 5546 5543 5539 5536 5532 5528 5523 5519 5513 5508 5503 5498 5493 5489 5484 5480 5476 5472 5468 5465 5461 5458 5455 5452 5450 5447 5445 5443 5441 5439 5438
5546 5547 5548 5548 5548 5548 5548 5547 5546 5544 5542 5540 5538 5535 5532 5529 5525 5521 5517 5513 5508 5503 5498 5493 5488 5483 5479 5474 5470 5466 5462 5458 5455 5451 5448 5445 5443 5440 5438 5436 5434 5432 5430 5429
5535 5536 5537 5537 5537 5537 5536 5535 5534 5533 5531 5529 5526 5524 5521 5517 5514 5510 5506 5501 5496 5492 5487 5482 5478 5473 5468 5464 5460 5456 5452 5448 5444 5441 5438 5435 5433 5431 5429 5427 5425 5423 5421 5419
5524 5524 5525 5526 5525 5525 5525 5524 5522 5521 5519 5517 5514 5512 5509 5506 5502 5498 5494 5490 5485 5481 5476 5472 5467 5463 5458 5454 5449 5445 5441 5437 5434 5430 5427 5425 5423 5421 5419 5417 5415 5413 5411 5409
5512 5513 5514 5514 5514 5513 5512 5511 5510 5509 5507 5505 5502 5500 5497 5494 5491 5487 5482 5478 5474 5469 5465 5461 5456 5452 5447 5443 5438 5434 5430 5426 5423 5420 5417 5414 5412 5410 5408 5406 5405 5403 5401 5400
5500 5501 5502 5502 5501 5501 5500 5499 5498 5496 5494 5492 5490 5488 5485 5482 5478 5474 5470 5466 5462 5458 5454 5449 5445 5440 5436 5431 5426 5422 5418 5415 5411 5409 5406 5404 5402 5400 5398 5396 5395 5393 5392 5390
5488 5489 5489 5489 5489 5488 5487 5486 5485 5484 5482 5480 5477 5475 5472 5469 5466 5462 5458 5454 5450 5446 5442 5438 5433 5429 5424 5419 5415 5410 5406 5403 5400 5398 5396 5394 5391 5390 5388 5386 5384 5383 5382 5380